Weather History for Edenton, NC

Change the Weather History Date:

Thursday, March 6, 2014

  Actual Average Record
Temperature  
Mean Temperature 38 °F -  
Max Temperature 44 °F 62 °F 81 °F (1967)
Min Temperature 31 °F 40 °F 17 °F (1960)
Degree Days  
Heating Degree Days 28    
Moisture  
Dew Point 32 °F    
Average Humidity 81    
Maximum Humidity 97    
Minimum Humidity 69    
Precipitation  
Precipitation 0.30 in - - ()
Sea Level Pressure  
Sea Level Pressure 30.29 in    
Wind  
Wind Speed 10 mph (NNE)    
Max Wind Speed 20 mph    
Max Gust Speed 29 mph    
Visibility 9 miles    
Events Rain    
Averages and records for this station are not official NWS values.
T = Trace of Precipitation, MM = Missing Value Source: NWS Daily Summary

Daily Weather History Graph

Daily Weather History Graph

Search for Another Location

Airport:

Trip Planner

Search our weather history database for the weather conditions in past years. The results will help you decide how hot, cold, wet, or windy it might be!

Date:

Astronomy

Mar. 06, 2014 Rise Set
Actual Time 6:29 AM EST 6:05 PM EST
Civil Twilight 6:04 AM EST 6:31 PM EST
Nautical Twilight 5:34 AM EST 7:01 PM EST
Astronomical Twilight 5:04 AM EST 7:30 PM EST
Moon 9:46 AM EST (3/6) 11:58 PM EST (3/6)
Length of Visible Light 12h 27m
Length of Day
11h 36m
Waxing Crescent, 32% of the Moon is Illuminated
Mar 6
Waxing Crescent
Mar 8
First Quarter
Mar 16
Full
Mar 23
Last Quarter
Mar 30
New

Hourly Weather History & Observations

Time (EST) Temp. Windchill Dew Point Humidity Pressure Visibility Wind Dir Wind Speed Gust Speed Precip Events Conditions
12:15 AM 32.2 °F 27.7 °F 27.1 °F 82% 30.28 in 10.0 mi NNE 4.6 mph - N/A   Clear
12:35 AM 32.5 °F 28.1 °F 27.3 °F 81% 30.29 in 10.0 mi NNE 4.6 mph - N/A   Clear
12:55 AM 32.0 °F 28.7 °F 27.3 °F 83% 30.30 in 10.0 mi NNE 3.5 mph - N/A   Clear
1:15 AM 32.0 °F - 27.3 °F 83% 30.31 in 10.0 mi Calm Calm - N/A   Clear
1:35 AM 32.0 °F - 27.5 °F 83% 30.31 in 10.0 mi Calm Calm - N/A   Clear
1:55 AM 31.5 °F 25.8 °F 27.1 °F 84% 30.30 in 10.0 mi NNE 5.8 mph - N/A   Clear
2:20 AM 32.0 °F 25.6 °F 27.5 °F 83% 30.29 in 10.0 mi NNE 6.9 mph - N/A   Clear
2:35 AM 32.0 °F 24.8 °F 27.7 °F 84% 30.28 in 10.0 mi NNE 8.1 mph - N/A   Clear
2:55 AM 32.0 °F 26.4 °F 28.0 °F 85% 30.29 in 10.0 mi NNE 5.8 mph - N/A   Clear
3:15 AM 32.4 °F 26.0 °F 28.2 °F 85% 30.29 in 10.0 mi NNE 6.9 mph - N/A   Clear
3:35 AM 32.4 °F 25.3 °F 28.4 °F 85% 30.28 in 10.0 mi NNE 8.1 mph - N/A   Clear
3:55 AM 32.9 °F 25.3 °F 28.4 °F 84% 30.28 in 10.0 mi NNE 9.2 mph - N/A   Clear
4:15 AM 33.3 °F 25.7 °F 28.2 °F 82% 30.29 in 10.0 mi NNE 9.2 mph - N/A   Clear
4:35 AM 34.0 °F 25.5 °F 27.9 °F 78% 30.28 in 10.0 mi NE 11.5 mph 16.1 mph N/A   Clear
4:55 AM 34.3 °F 27.7 °F 27.3 °F 76% 30.28 in 10.0 mi NE 8.1 mph 17.3 mph N/A   Clear
5:15 AM 34.7 °F 27.5 °F 26.8 °F 73% 30.30 in 10.0 mi NE 9.2 mph - N/A   Clear
5:35 AM 34.7 °F 27.5 °F 26.6 °F 72% 30.32 in 10.0 mi NNE 9.2 mph 17.3 mph N/A   Clear
5:55 AM 34.7 °F 27.5 °F 27.0 °F 73% 30.33 in 10.0 mi NNE 9.2 mph - N/A   Clear
6:15 AM 34.2 °F 28.2 °F 27.1 °F 75% 30.33 in 10.0 mi NNE 6.9 mph - N/A   Clear
6:35 AM 33.8 °F 25.8 °F 27.5 °F 78% 30.33 in 10.0 mi NNE 10.4 mph 16.1 mph N/A   Clear
6:55 AM 34.2 °F 25.7 °F 28.2 °F 79% 30.33 in 10.0 mi NNE 11.5 mph 16.1 mph N/A   Clear
7:15 AM 34.7 °F 25.9 °F 28.6 °F 78% 30.33 in 10.0 mi NNE 12.7 mph 18.4 mph N/A   Clear
7:35 AM 35.2 °F 27.1 °F 28.4 °F 76% 30.35 in 10.0 mi NNE 11.5 mph 20.7 mph N/A   Clear
7:55 AM 36.0 °F 27.5 °F 28.6 °F 75% 30.35 in 10.0 mi NNE 12.7 mph 18.4 mph N/A   Clear
8:15 AM 36.9 °F 27.1 °F 29.1 °F 74% 30.36 in 10.0 mi NNE 17.3 mph 26.5 mph N/A   Clear
8:35 AM 37.6 °F 28.8 °F 30.2 °F 75% 30.37 in 10.0 mi NNE 15.0 mph 25.3 mph N/A   Clear
8:55 AM 38.5 °F 29.9 °F 31.3 °F 75% 30.37 in 10.0 mi NNE 15.0 mph 20.7 mph N/A   Clear
9:15 AM 39.6 °F 31.0 °F 32.0 °F 74% 30.36 in 10.0 mi NNE 16.1 mph 26.5 mph N/A   Clear
9:35 AM 40.8 °F 31.7 °F 32.4 °F 72% 30.35 in 10.0 mi NNE 19.6 mph 25.3 mph N/A   Clear
9:55 AM 41.5 °F 32.9 °F 32.9 °F 71% 30.36 in 10.0 mi NNE 18.4 mph 28.8 mph N/A   Scattered Clouds
10:15 AM 42.6 °F 35.2 °F 33.4 °F 70% 30.35 in 10.0 mi NNE 15.0 mph 28.8 mph N/A   Scattered Clouds
10:35 AM 44.2 °F 37.6 °F 34.5 °F 69% 30.36 in 10.0 mi NNE 13.8 mph 25.3 mph N/A   Scattered Clouds
10:55 AM 43.5 °F 35.8 °F 34.0 °F 69% 30.36 in 10.0 mi NE 17.3 mph 27.6 mph N/A   Mostly Cloudy
11:15 AM 42.8 °F 34.8 °F 33.4 °F 70% 30.35 in 10.0 mi NNE 17.3 mph 23.0 mph N/A   Overcast
11:35 AM 42.8 °F 35.8 °F 34.0 °F 71% 30.35 in 10.0 mi NE 13.8 mph 25.3 mph N/A   Overcast
11:55 AM 42.6 °F 34.6 °F 33.4 °F 70% 30.34 in 10.0 mi NNE 17.3 mph 26.5 mph N/A   Overcast
12:15 PM 43.7 °F 36.0 °F 34.3 °F 70% 30.32 in 10.0 mi NNE 17.3 mph 24.2 mph N/A   Overcast
12:35 PM 43.7 °F 36.6 °F 34.3 °F 70% 30.32 in 10.0 mi NE 15.0 mph 23.0 mph N/A   Overcast
12:55 PM 42.6 °F 35.2 °F 33.6 °F 70% 30.33 in 10.0 mi NE 15.0 mph 23.0 mph N/A   Overcast
1:15 PM 41.4 °F 33.0 °F 33.1 °F 72% 30.31 in 10.0 mi NE 17.3 mph 25.3 mph N/A   Overcast
1:35 PM 41.0 °F 31.9 °F 33.1 °F 73% 30.32 in 10.0 mi NE 19.6 mph 27.6 mph N/A   Overcast
1:55 PM 40.8 °F 32.3 °F 32.9 °F 73% 30.32 in 10.0 mi NE 17.3 mph 26.5 mph N/A   Overcast
2:15 PM 40.3 °F 32.6 °F 32.9 °F 75% 30.33 in 10.0 mi NNE 13.8 mph 23.0 mph N/A   Overcast
2:35 PM 39.9 °F 31.8 °F 32.4 °F 74% 30.31 in 10.0 mi NNE 15.0 mph 25.3 mph N/A   Overcast
2:55 PM 39.6 °F 32.1 °F 32.2 °F 75% 30.30 in 10.0 mi NNE 12.7 mph 24.2 mph N/A   Overcast
3:15 PM 39.2 °F 29.8 °F 32.0 °F 75% 30.28 in 10.0 mi NE 18.4 mph 25.3 mph N/A   Overcast
3:35 PM 39.2 °F 30.5 °F 32.0 °F 75% 30.27 in 10.0 mi NE 16.1 mph 24.2 mph N/A   Overcast
3:55 PM 38.8 °F 29.7 °F 32.0 °F 76% 30.27 in 10.0 mi NE 17.3 mph 25.3 mph N/A   Overcast
4:15 PM 38.7 °F 31.4 °F 32.0 °F 77% 30.26 in 10.0 mi NE 11.5 mph 24.2 mph N/A   Overcast
4:35 PM 38.3 °F 29.0 °F 32.0 °F 78% 30.27 in 10.0 mi NE 17.3 mph 26.5 mph N/A   Light Drizzle
4:55 PM 37.6 °F 28.4 °F 32.4 °F 81% 30.27 in 7.0 mi NNE 16.1 mph 27.6 mph N/A Rain Light Rain
5:15 PM 36.9 °F 27.5 °F 33.1 °F 86% 30.27 in 5.0 mi NE 16.1 mph 27.6 mph 0.01 in Rain Light Rain
5:35 PM 36.5 °F 27.4 °F 34.0 °F 91% 30.27 in 5.0 mi NNE 15.0 mph 24.2 mph 0.02 in Rain Light Rain
5:55 PM 36.7 °F 27.6 °F 34.0 °F 90% 30.28 in 5.0 mi NNE 15.0 mph 20.7 mph 0.02 in Rain Rain
6:15 PM 36.7 °F 27.2 °F 34.0 °F 90% 30.27 in 7.0 mi NE 16.1 mph 21.9 mph 0.01 in Rain Light Rain
6:35 PM 36.5 °F 28.2 °F 34.0 °F 91% 30.26 in 5.0 mi NNE 12.7 mph 19.6 mph 0.02 in Rain Light Rain
6:55 PM 36.5 °F 27.4 °F 34.3 °F 92% 30.25 in 7.0 mi NE 15.0 mph 23.0 mph 0.03 in Rain Rain
7:15 PM 36.5 °F 28.2 °F 34.7 °F 93% 30.24 in 7.0 mi NNE 12.7 mph 21.9 mph N/A Rain Light Rain
7:35 PM 36.7 °F 26.9 °F 34.9 °F 93% 30.23 in 7.0 mi NNE 17.3 mph 25.3 mph N/A Rain Light Rain
7:55 PM 36.9 °F 28.2 °F 35.2 °F 94% 30.22 in 7.0 mi NE 13.8 mph 21.9 mph 0.01 in Rain Light Rain
8:15 PM 37.0 °F 27.7 °F 35.2 °F 93% 30.22 in 7.0 mi NNE 16.1 mph 25.3 mph N/A Rain Light Rain
8:35 PM 37.4 °F 29.8 °F 35.6 °F 93% 30.23 in 7.0 mi NE 11.5 mph 19.6 mph 0.01 in Rain Light Rain
8:55 PM 37.6 °F 28.4 °F 35.8 °F 93% 30.23 in 5.0 mi NE 16.1 mph 24.2 mph 0.02 in Rain Light Rain
9:15 PM 37.6 °F 30.0 °F 36.0 °F 94% 30.23 in 5.0 mi NNE 11.5 mph 21.9 mph 0.01 in Rain Light Rain
9:35 PM 37.6 °F 29.1 °F 36.1 °F 95% 30.22 in 5.0 mi NNE 13.8 mph 23.0 mph 0.04 in Rain Light Rain
9:55 PM 37.9 °F 30.0 °F 36.7 °F 95% 30.22 in 5.0 mi NNE 12.7 mph 23.0 mph 0.06 in Rain Light Rain
10:15 PM 38.3 °F 29.7 °F 37.2 °F 96% 30.20 in 5.0 mi NNE 15.0 mph 23.0 mph 0.02 in Rain Rain
10:35 PM 38.5 °F 29.9 °F 37.4 °F 96% 30.19 in 5.0 mi NNE 15.0 mph 23.0 mph 0.05 in Rain Light Rain
10:55 PM 38.8 °F 30.8 °F 37.8 °F 96% 30.18 in 5.0 mi NNE 13.8 mph 21.9 mph 0.08 in Rain Rain
11:15 PM 38.8 °F 30.4 °F 37.9 °F 97% 30.16 in 5.0 mi NNE 15.0 mph 20.7 mph 0.03 in Rain Rain
11:35 PM 39.2 °F 31.6 °F 38.3 °F 97% 30.15 in 5.0 mi NE 12.7 mph 20.7 mph 0.06 in Rain Rain
11:55 PM 39.6 °F 30.6 °F 38.8 °F 97% 30.12 in 7.0 mi NNE 17.3 mph 21.9 mph 0.08 in Rain Light Rain